Preview of NWS' New Version of Forecast
This preview is not operational and should not be used for support decisions.

Regional Weather Roundup (RWR)

Issued by National Weather Service (NWS)

                            
000
ASUS43 KLSX 170257
RWRMO 

WEATHER SUMMARY FOR MISSOURI
NATIONAL WEATHER SERVICE SPRINGFIELD MO
1000 PM CDT MON SEP 16 2019

NOTE: "FAIR" INDICATES FEW OR NO CLOUDS BELOW 12,000 FEET WITH NO
       SIGNIFICANT WEATHER AND/OR OBSTRUCTIONS TO VISIBILITY.
       CURRENT SKY AND/OR WEATHER CONDITIONS ARE NOT AVAILABLE FOR
       CHILLICOTHE AND FARMINGTON.

MOZ001>031-035>038-043-044-053-054-170400-
...NORTHERN AND WESTERN MISSOURI...
  
CITY           SKY/WX    TMP DP  RH WIND       PRES   REMARKS
KANSAS CTY INT CLEAR     77  70  79 SE7       30.04R                  
LEE'S SUMMIT   CLEAR     80  68  66 SE8       30.05R                  
ST JOSEPH      CLEAR     76  71  85 CALM      30.01S                  
CHILLICOTHE      N/A     74  73  97 CALM      30.05R                  
     
$$
MOZ066>068-077>081-088>096-101>105-170400-
...SOUTHWEST MISSOURI...
  
CITY           SKY/WX    TMP DP  RH WIND       PRES   REMARKS
SPRINGFIELD    CLEAR     75  69  81 S5        30.07R                  
JOPLIN         CLEAR     76  69  79 SE3       30.05R                  
               
$$
MOZ032>034-039>042-045>050-055>058-069>072-170400-
...CENTRAL MISSOURI...  
  
CITY           SKY/WX    TMP DP  RH WIND       PRES   REMARKS
COLUMBIA       NOT AVBL                                               
JEFFERSON CITY CLEAR     77  71  82 CALM      30.04R                  
ROLLA          CLEAR     76  66  71 SE6       30.08R                  
SEDALIA        CLEAR     75  71  87 SE5       30.06R                  
WARRENSBURG    CLEAR     77  70  78 CALM      30.04R                  
               
$$
MOZ051-052-059>065-170400-
...EAST CENTRAL MISSOURI...
  
CITY           SKY/WX    TMP DP  RH WIND       PRES   REMARKS
ST LOUIS INTL  MOCLDY    84  71  65 NE6       30.05R                  
                   
$$
MOZ072>076-082>087-097>100-106>115-170400-
...SOUTH CENTRAL AND SOUTHEAST MISSOURI...
  
CITY           SKY/WX    TMP DP  RH WIND       PRES   REMARKS
CAPE GIRARDEAU FAIR      74  70  87 CALM      30.02R                  
POPLAR BLUFF   FAIR      76  71  85 CALM      30.03R                  
WEST PLAINS    CLEAR     73  67  81 CALM      30.09R                  
                                       
$$